Tracking 21155 objects as of 15-Aug-2020
HD Live streaming from Space Station
objects crossing your sky now

METEOR 3M

Track METEOR 3M now!
10-day predictions
METEOR 3M is classified as:


NORAD ID: 27001
Int'l Code: 2001-056A
Perigee: 1,001.4 km
Apogee: 1,020.3 km
Inclination: 99.6 °
Period: 105.2 minutes
Semi major axis: 7381 km
RCS: 7.1203 m2 (large)
Launch date: December 10, 2001
Source: Commonwealth of Independent States (former USSR) (CIS)
Launch site: TYURATAM MISSILE AND SPACE COMPLEX (TTMTR)
aabbcc
Your satellite tracking list
Your tracking list is empty




NASA's NSSDC Master Catalog

Two Line Element Set (TLE):
1 27001U 01056A   20228.35895703 -.00000033 +00000-0 +13572-4 0  9995
2 27001 099.5800 005.5163 0012841 257.9001 155.2435 13.68842053933238
Source of the keplerian elements: AFSPC